{"data":{"norad_id":63888,"epoch":"2026-09-20T23:01:21.442944Z","epoch_age_seconds":107359,"freshness":"FRESH","line1":"1 63888U 25094AA  26263.95927596  .00006453  00000+0  22869-3 0  9991","line2":"2 63888  69.9970  99.6819 0003904 269.3348  90.7380 15.29584515 76519","mean_motion":15.29584515,"eccentricity":0.0003904,"inclination_deg":69.997,"raan_deg":99.6819,"arg_perigee_deg":269.3348,"mean_anomaly_deg":90.738,"bstar":0.00022869,"rev_number":7651,"period_min":94.143212478848,"perigee_km":474.37714655405,"apogee_km":479.72967922844,"semimajor_km":6855.1904128912,"source":"CELESTRAK","updated_at":"2026-09-21T09:00:35.142085Z"}}